Regional Weather Roundup
Issued by NWS

Home | Current Version | Previous Version | Graphics & Text | Print | Product List | Glossary On
Versions: 1 2 3 4 5 6 7 8 9 10 11 12 13 14 15 16 17 18 19 20 21 22 23 24 25 26 27 28 29 30 31 32 33 34 35 36 37 38 39 40 41 42 43 44 45 46 47 48 49 50
000
ASUS45 KCYS 241110
RWRWY

WYOMING REGIONAL WEATHER ROUNDUP
NATIONAL WEATHER SERVICE CHEYENNE WY
400 AM MST SAT JAN 24 2015

NOTE:  "FAIR" INDICATES FEW OR NO CLOUDS BELOW 12,000 FEET
WITH NO SIGNIFICANT WEATHER AND/OR OBSTRUCTIONS TO VISIBILITY.

WYZ001-241200-
YELLOWSTONE NATIONAL PARK

CITY           SKY/WX    TMP DP  RH WIND       PRES   REMARKS
LK YELLOWSTONE   N/A     10   7  87 CALM      30.35F
W YELLOWSTONE  NOT AVBL

$$
WYZ002>013-054>058-071-098>099-241200-
NORTHERN WYOMING

CITY           SKY/WX    TMP DP  RH WIND       PRES   REMARKS
JACKSON        CLOUDY     9   7  92 CALM      30.41F
CODY           FAIR      45  19  36 W24G36    30.08R
GREYBULL       MOCLDY    15  13  91 NE3       30.14F
WORLAND        FAIR      17  14  88 S7        30.10F WCI   8
SHERIDAN       FAIR      28  20  71 SW3       29.94F
BUFFALO        FAIR      33  17  51 CALM      29.95F
GILLETTE       FAIR      36  22  56 SW21      29.94F WCI  25
HULETT           N/A    N/A N/A N/A MISG        N/A
NEWCASTLE      FAIR      23  21  93 NE3       30.00F

$$
WYZ014>020-022>026-101>103-241200-
CENTRAL WYOMING

CITY           SKY/WX    TMP DP  RH WIND       PRES   REMARKS
BIG PINEY      FAIR       4   0  83 SE6       30.34F WCI  -7
PINEDALE       FAIR       5   3  92 W8        30.33F WCI  -8
DUBOIS         FAIR      32  14  47 NW16G28   30.21F WCI  21
LANDER         FAIR      25  15  66 SW7       30.12F WCI  17
RIVERTON       FAIR      22  18  85 CALM      30.14F
CASPER         FAIR      32  19  58 SW23G33   30.10F WCI  19
DOUGLAS        FAIR      25  19  78 CALM      30.03F

$$
WYZ021-027>030-104>119-241200-
SOUTHERN WYOMING

CITY           SKY/WX    TMP DP  RH WIND       PRES   REMARKS
EVANSTON       FAIR      15  11  83 S8        30.42R WCI   4
FORT BRIDGER   FAIR      26  19  73 W18G24    30.41S WCI  13
ROCK SPRINGS   FAIR      22  16  78 SW22      30.33R WCI   6
DIXON          FAIR      17   9  72 SE8       30.39F WCI   6
RAWLINS        FAIR      24  15  68 NW6       30.27F WCI  17
SARATOGA       FAIR      14  10  85 SE3       30.31F
LARAMIE        FAIR      11   6  81 SE7       30.20S WCI   0
CHEYENNE       FAIR      31  12  45 W12       30.10F WCI  22
TORRINGTON     FAIR      33  20  58 W8        30.05F WCI  26
PINE BLUFFS    FAIR      19  14  79 SE8       30.10F WCI   9

$$



USA.gov is the U.S. government's official web portal to all federal, state and local government web resources and services.